#timestamp,LO_Frequency,Hit,StdDev 
1602339575.6,286047016.3,P
1602339595.4,286047016.8,P
1602339615.3,286047016.6,P
1602339635.1,286047020.3,Y
1602339636.0,286047020.3,P
1602339655.8,286047004.0,N
1602339675.7,286047001.4,N
1602339695.5,286047004.3,N
1602339715.3,286047004.0,N
1602339735.2,286047005.3,N
1602339755.0,286047004.8,N
1602339755.9,286047004.8,N
1602339775.8,286047007.4,N
1602339795.6,286047007.5,N
1602339815.4,286047007.5,N
1602339835.3,286047007.0,N
1602339855.1,286047004.6,N
1602339875.8,286047006.2,N
1602339895.7,286047007.9,N
1602339915.5,286047010.3,N
1602339935.4,286047010.1,N
1602339955.2,286047008.6,N
1602339975.0,286047007.6,N
1602339975.9,286047007.6,N
1602339995.8,286047007.3,N
1602340015.6,286047007.9,N
1602340035.4,286047009.6,N
1602340055.3,286047009.4,N
1602340075.1,286047011.6,Y
1602340095.9,286047004.1,P
1602340115.7,286047003.8,N
1602340135.5,286047001.8,N
1602340155.4,286047001.3,N
1602340175.2,286047003.2,N
1602340195.1,286047001.8,N
1602340196.0,286047001.8,N
1602340215.8,286047004.0,N
1602340235.6,286047004.2,N
1602340255.5,286047003.4,N
1602340275.3,286047003.6,N
1602340295.1,286047004.1,N
1602340315.9,286047002.0,N
1602340335.7,286047003.7,N
1602340355.6,286047005.8,Y
1602340375.4,286047004.3,P
1602340395.2,286047003.1,P
1602340415.1,286047003.8,P
1602340416.0,286047003.8,Y
1602340435.8,286047002.8,P
1602340455.6,286047004.4,P
1602340475.5,286047004.7,P
1602340495.3,286047006.6,Y
1602340515.2,286047002.0,P
1602340535.0,286047001.7,N
1602340535.9,286047001.7,N
1602340555.7,286047001.3,N
1602340575.6,286047000.0,N
1602340595.4,286047001.0,N
1602340615.3,286046998.2,N
1602340635.1,286046999.9,N
1602340636.0,286046999.9,N
1602340655.8,286047002.2,N
1602340675.7,286047004.4,Y
1602340695.5,286046999.5,P
1602340715.3,286046998.2,N
1602340735.2,286046998.8,N
1602340755.0,286046999.5,N
1602340755.9,286046999.5,N
1602340775.8,286046999.5,N
1602340795.6,286046999.1,N
1602340815.4,286046998.8,N
1602340835.3,286046999.6,N
1602340855.1,286046996.8,Y
1602340875.9,286046999.1,P
1602340895.7,286046998.3,P
1602340915.5,286046998.3,P
1602340935.4,286046999.4,N
1602340955.2,286046998.7,N
1602340975.0,286046997.0,Y
1602340975.9,286046997.0,P
1602340995.8,286046996.6,P
1602341015.6,286046994.9,P
1602341035.5,286046997.1,N
1602341055.3,286046997.8,N
1602341075.1,286046996.7,N
1602341095.9,286046995.4,Y
1602341115.7,286047000.6,P
1602341135.5,286047000.6,N
1602341155.4,286047000.5,N
1602341175.2,286046999.0,N
1602341195.1,286046998.3,N
1602341196.0,286046998.3,N
1602341215.8,286047000.2,N
1602341235.6,286047000.1,N
1602341255.5,286046999.9,N
1602341275.3,286046998.1,N
1602341295.1,286047001.2,N
1602341315.9,286046999.1,N
1602341335.7,286046999.0,N
1602341355.6,286046994.9,Y
1602341375.4,286046995.8,P
1602341395.2,286046994.3,P
1602341415.1,286046993.8,N
1602341416.0,286046993.8,N
1602341435.8,286046993.8,N
1602341455.7,286046995.7,N
1602341475.5,286046997.9,N
1602341495.3,286046995.7,N
1602341515.2,286046993.8,Y
1602341535.9,286046997.2,P
1602341555.7,286046997.3,P
1602341575.6,286046995.4,P
1602341595.4,286046995.0,Y
1602341615.3,286046999.4,P
1602341635.1,286047000.8,N
1602341636.0,286047000.8,N
1602341655.8,286047000.6,N
1602341675.7,286047001.6,N
1602341695.5,286047001.5,N
1602341715.3,286047001.9,N
1602341735.2,286047002.5,N
1602341755.0,286047001.2,N
1602341755.9,286047001.2,N
1602341775.8,286046996.5,N
1602341795.6,286046996.6,N
1602341815.4,286046997.2,N
1602341835.3,286046997.0,N
1602341855.1,286046998.2,N
1602341875.8,286047001.0,N
1602341895.7,286047000.6,N
1602341915.5,286047000.7,N
1602341935.4,286047000.3,N
1602341955.2,286047000.2,N
1602341975.0,286046997.0,N
1602341975.9,286046997.0,N
1602341995.8,286046994.9,N
